| time (UTC) | temp F | wind direction | speed MPH | gust MPH | rain 1hr in | rain 24hr in | rain mn in | humidity % | barometer mb |
| 20260503012957 | 64 | 334 | 5.0 | 6.0 | 0.00 | 0.00 | 0.00 | 15 | 1017.1 |
| 20260503012455 | 65 | 21 | 5.0 | 7.0 | 0.00 | 0.00 | 0.00 | 15 | 1017.1 |
| 20260503011950 | 66 | 359 | 7.0 | 9.0 | 0.00 | 0.00 | 0.00 | 14 | 1017.3 |
| 20260503011448 | 66 | 356 | 9.0 | 11.0 | 0.00 | 0.00 | 0.00 | 14 | 1017.1 |
| 20260503010945 | 67 | 341 | 11.0 | 13.0 | 0.00 | 0.00 | 0.00 | 15 | 1017.0 |
| 20260503010441 | 67 | 14 | 7.0 | 10.0 | 0.00 | 0.00 | 0.00 | 14 | 1016.9 |
| 20260503005938 | 67 | 14 | 11.0 | 14.0 | 0.00 | 0.00 | 0.00 | 14 | 1016.8 |
| 20260503005436 | 68 | 15 | 9.0 | 11.0 | 0.00 | 0.00 | 0.00 | 14 | 1017.0 |
| 20260503004932 | 68 | 348 | 9.0 | 10.0 | 0.00 | 0.00 | 0.00 | 14 | 1016.8 |
| 20260503004429 | 68 | 2 | 10.0 | 14.0 | 0.00 | 0.00 | 0.00 | 14 | 1017.1 |
| 20260503003927 | 68 | 13 | 7.0 | 8.0 | 0.00 | 0.00 | 0.00 | 13 | 1017.0 |
| 20260503003424 | 68 | 3 | 7.0 | 10.0 | 0.00 | 0.00 | 0.00 | 14 | 1017.3 |
| 20260503002921 | 68 | 324 | 8.0 | 11.0 | 0.00 | 0.00 | 0.00 | 14 | 1017.0 |
| 20260503002418 | 69 | 298 | 9.0 | 14.0 | 0.00 | 0.00 | 0.00 | 14 | 1017.3 |
| 20260503001914 | 69 | 286 | 9.0 | 13.0 | 0.00 | 0.00 | 0.00 | 14 | 1017.1 |
| 20260503001410 | 69 | 332 | 8.0 | 10.0 | 0.00 | 0.00 | 0.00 | 14 | 1017.5 |
| 20260503000908 | 69 | 311 | 11.0 | 16.0 | 0.00 | 0.00 | 0.00 | 14 | 1017.4 |
| 20260503000400 | 69 | 296 | 7.0 | 13.0 | 0.00 | 0.00 | 0.00 | 14 | 1017.6 |
| 20260502235856 | 69 | 331 | 6.0 | 10.0 | 0.00 | 0.00 | 0.00 | 14 | 1017.4 |
| 20260502235353 | 69 | 300 | 12.0 | 15.0 | 0.00 | 0.00 | 0.00 | 14 | 1017.4 |
| 20260502234850 | 69 | 269 | 9.0 | 14.0 | 0.00 | 0.00 | 0.00 | 14 | 1017.4 |
| 20260502234347 | 69 | 317 | 13.0 | 14.0 | 0.00 | 0.00 | 0.00 | 13 | 1017.4 |
| 20260502233844 | 70 | 5 | 11.0 | 17.0 | 0.00 | 0.00 | 0.00 | 14 | 1017.5 |
| 20260502233340 | 70 | 300 | 8.0 | 13.0 | 0.00 | 0.00 | 0.00 | 14 | 1017.4 |
| 20260502232837 | 69 | 298 | 0.0 | 6.0 | 0.00 | 0.00 | 0.00 | 14 | 1017.5 |
| 20260502232333 | 70 | 278 | 5.0 | 10.0 | 0.00 | 0.00 | 0.00 | 15 | 1017.5 |
| 20260502231829 | 70 | 313 | 7.0 | 16.0 | 0.00 | 0.00 | 0.00 | 14 | 1017.4 |
| 20260502231327 | 70 | 327 | 11.0 | 15.0 | 0.00 | 0.00 | 0.00 | 14 | 1017.4 |
| 20260502230825 | 70 | 289 | 7.0 | 8.0 | 0.00 | 0.00 | 0.00 | 14 | 1017.5 |
| 20260502230323 | 70 | 289 | 12.0 | 17.0 | 0.00 | 0.00 | 0.00 | 14 | 1017.7 |
| 20260502225819 | 69 | 291 | 7.0 | 11.0 | 0.00 | 0.00 | 0.00 | 15 | 1017.6 |
| 20260502225311 | 69 | 15 | 14.0 | 15.0 | 0.00 | 0.00 | 0.00 | 14 | 1017.7 |
| 20260502224807 | 69 | 24 | 9.0 | 13.0 | 0.00 | 0.00 | 0.00 | 14 | 1017.5 |
| 20260502224304 | 70 | 292 | 6.0 | 13.0 | 0.00 | 0.00 | 0.00 | 14 | 1017.6 |
| 20260502223802 | 69 | 286 | 10.0 | 14.0 | 0.00 | 0.00 | 0.00 | 13 | 1017.7 |
| 20260502223300 | 70 | 241 | 8.0 | 14.0 | 0.00 | 0.00 | 0.00 | 14 | 1017.9 |
| 20260502222757 | 70 | 287 | 14.0 | 18.0 | 0.00 | 0.00 | 0.00 | 14 | 1017.9 |
| 20260502222254 | 70 | 338 | 11.0 | 20.0 | 0.00 | 0.00 | 0.00 | 14 | 1017.9 |
| 20260502221750 | 70 | 252 | 7.0 | 9.0 | 0.00 | 0.00 | 0.00 | 14 | 1018.0 |
| 20260502221246 | 70 | 343 | 13.0 | 16.0 | 0.00 | 0.00 | 0.00 | 14 | 1018.1 |
| 20260502220743 | 69 | 292 | 11.0 | 16.0 | 0.00 | 0.00 | 0.00 | 15 | 1018.0 |
| 20260502220239 | 69 | 7 | 14.0 | 20.0 | 0.00 | 0.00 | 0.00 | 14 | 1018.0 |
| 20260502215736 | 70 | 308 | 17.0 | 18.0 | 0.00 | 0.00 | 0.00 | 14 | 1018.1 |
| 20260502215233 | 70 | 252 | 12.0 | 20.0 | 0.00 | 0.00 | 0.00 | 15 | 1018.2 |
| 20260502214730 | 69 | 280 | 11.0 | 16.0 | 0.00 | 0.00 | 0.00 | 15 | 1018.2 |
| 20260502214227 | 70 | 301 | 11.0 | 18.0 | 0.00 | 0.00 | 0.00 | 15 | 1018.4 |
| 20260502213719 | 69 | 208 | 5.0 | 13.0 | 0.00 | 0.00 | 0.00 | 16 | 1018.4 |
| 20260502213216 | 69 | 326 | 9.0 | 21.0 | 0.00 | 0.00 | 0.00 | 16 | 1018.4 |
| 20260502212714 | 70 | 303 | 6.0 | 20.0 | 0.00 | 0.00 | 0.00 | 16 | 1018.7 |
| 20260502212212 | 69 | 245 | 10.0 | 14.0 | 0.00 | 0.00 | 0.00 | 16 | 1018.7 |
| 20260502211708 | 70 | 255 | 11.0 | 14.0 | 0.00 | 0.00 | 0.00 | 16 | 1018.8 |
| 20260502211205 | 69 | 343 | 17.0 | 20.0 | 0.00 | 0.00 | 0.00 | 16 | 1018.8 |
| 20260502210702 | 69 | 278 | 9.0 | 13.0 | 0.00 | 0.00 | 0.00 | 17 | 1018.6 |
| 20260502210159 | 69 | 252 | 9.0 | 14.0 | 0.00 | 0.00 | 0.00 | 18 | 1018.9 |
| 20260502205656 | 68 | 247 | 15.0 | 25.0 | 0.00 | 0.00 | 0.00 | 17 | 1019.0 |
| 20260502205152 | 69 | 200 | 3.0 | 8.0 | 0.00 | 0.00 | 0.00 | 18 | 1018.9 |
| 20260502204649 | 68 | 300 | 14.0 | 18.0 | 0.00 | 0.00 | 0.00 | 18 | 1018.9 |
| 20260502204147 | 68 | 256 | 12.0 | 16.0 | 0.00 | 0.00 | 0.00 | 18 | 1019.0 |
| 20260502203638 | 69 | 253 | 12.0 | 17.0 | 0.00 | 0.00 | 0.00 | 17 | 1019.1 |
| 20260502203137 | 69 | 307 | 11.0 | 13.0 | 0.00 | 0.00 | 0.00 | 18 | 1019.1 |
| 20260502202631 | 67 | 163 | 6.0 | 8.0 | 0.00 | 0.00 | 0.00 | 18 | 1019.1 |
| 20260502202129 | 68 | 314 | 8.0 | 13.0 | 0.00 | 0.00 | 0.00 | 17 | 1019.5 |
| 20260502201626 | 68 | 305 | 15.0 | 18.0 | 0.00 | 0.00 | 0.00 | 17 | 1019.4 |
| 20260502201122 | 67 | 235 | 5.0 | 9.0 | 0.00 | 0.00 | 0.00 | 18 | 1019.5 |
| 20260502200618 | 67 | 281 | 10.0 | 15.0 | 0.00 | 0.00 | 0.00 | 19 | 1019.5 |
| 20260502200115 | 67 | 291 | 9.0 | 11.0 | 0.00 | 0.00 | 0.00 | 18 | 1019.3 |
| 20260502195614 | 68 | 282 | 9.0 | 15.0 | 0.00 | 0.00 | 0.00 | 18 | 1019.6 |
| 20260502195109 | 66 | 303 | 4.0 | 10.0 | 0.00 | 0.00 | 0.00 | 19 | 1019.9 |
| 20260502194606 | 67 | 281 | 8.0 | 13.0 | 0.00 | 0.00 | 0.00 | 19 | 1019.7 |
| 20260502194102 | 67 | 301 | 12.0 | 14.0 | 0.00 | 0.00 | 0.00 | 18 | 1019.9 |
| 20260502193600 | 67 | 272 | 10.0 | 16.0 | 0.00 | 0.00 | 0.00 | 18 | 1020.0 |
| 20260502193056 | 67 | 300 | 14.0 | 17.0 | 0.00 | 0.00 | 0.00 | 18 | 1020.0 |
| 20260502192551 | 66 | 210 | 0.0 | 1.0 | 0.00 | 0.00 | 0.00 | 18 | 1019.9 |
| 20260502192049 | 66 | 274 | 7.0 | 15.0 | 0.00 | 0.00 | 0.00 | 19 | 1020.0 |
| 20260502191540 | 65 | 325 | 5.0 | 10.0 | 0.00 | 0.00 | 0.00 | 18 | 1020.2 |
| 20260502191038 | 66 | 318 | 16.0 | 20.0 | 0.00 | 0.00 | 0.00 | 17 | 1020.4 |
| 20260502190536 | 65 | 324 | 13.0 | 16.0 | 0.00 | 0.00 | 0.00 | 19 | 1020.2 |
| 20260502190032 | 66 | 284 | 6.0 | 14.0 | 0.00 | 0.00 | 0.00 | 19 | 1020.3 |
| 20260502185527 | 66 | 256 | 5.0 | 9.0 | 0.00 | 0.00 | 0.00 | 20 | 1020.3 |
| 20260502185025 | 66 | 257 | 9.0 | 13.0 | 0.00 | 0.00 | 0.00 | 20 | 1020.6 |
| 20260502184520 | 65 | 217 | 10.0 | 18.0 | 0.00 | 0.00 | 0.00 | 21 | 1020.6 |
| 20260502184016 | 66 | 307 | 12.0 | 18.0 | 0.00 | 0.00 | 0.00 | 21 | 1020.7 |
| 20260502183513 | 64 | 0 | 5.0 | 8.0 | 0.00 | 0.00 | 0.00 | 21 | 1020.7 |
| 20260502183009 | 64 | 276 | 14.0 | 15.0 | 0.00 | 0.00 | 0.00 | 21 | 1020.9 |
| 20260502182504 | 64 | 300 | 13.0 | 15.0 | 0.00 | 0.00 | 0.00 | 21 | 1021.0 |
| 20260502182000 | 64 | 221 | 0.0 | 5.0 | 0.00 | 0.00 | 0.00 | 21 | 1021.0 |
| 20260502181458 | 64 | 280 | 9.0 | 14.0 | 0.00 | 0.00 | 0.00 | 21 | 1021.0 |
| 20260502180956 | 64 | 251 | 11.0 | 15.0 | 0.00 | 0.00 | 0.00 | 22 | 1021.2 |
| 20260502180453 | 63 | 245 | 9.0 | 14.0 | 0.00 | 0.00 | 0.00 | 21 | 1021.2 |
| 20260502170412 | 61 | 319 | 7.0 | 9.0 | 0.00 | 0.00 | 0.00 | 24 | 1022.1 |
| 20260502163849 | 60 | 301 | 9.0 | 14.0 | 0.00 | 0.00 | 0.00 | 25 | 1021.9 |
| 20260502163346 | 60 | 34 | 12.0 | 17.0 | 0.00 | 0.00 | 0.00 | 25 | 1022.0 |
| 20260502162844 | 59 | 7 | 11.0 | 13.0 | 0.00 | 0.00 | 0.00 | 25 | 1022.2 |
| 20260502162340 | 59 | 254 | 7.0 | 20.0 | 0.00 | 0.00 | 0.00 | 25 | 1022.3 |
| 20260502161837 | 60 | 321 | 7.0 | 13.0 | 0.00 | 0.00 | 0.00 | 25 | 1022.2 |
| 20260502161327 | 59 | 2 | 9.0 | 14.0 | 0.00 | 0.00 | 0.00 | 25 | 1022.2 |
| 20260502160826 | 59 | 308 | 5.0 | 9.0 | 0.00 | 0.00 | 0.00 | 25 | 1022.1 |
| 20260502160324 | 58 | 40 | 7.0 | 9.0 | 0.00 | 0.00 | 0.00 | 25 | 1022.1 |
| 20260502152259 | 58 | 344 | 5.0 | 9.0 | 0.00 | 0.00 | 0.00 | 24 | 1022.0 |
| 20260502151756 | 57 | 331 | 7.0 | 13.0 | 0.00 | 0.00 | 0.00 | 23 | 1022.2 |
| 20260502151253 | 57 | 346 | 9.0 | 15.0 | 0.00 | 0.00 | 0.00 | 20 | 1022.0 |
| 20260502150751 | 57 | 284 | 6.0 | 8.0 | 0.00 | 0.00 | 0.00 | 27 | 1022.1 |
| 20260502150247 | 56 | 318 | 11.0 | 13.0 | 0.00 | 0.00 | 0.00 | 25 | 1022.2 |
| 20260502130636 | 38 | 292 | 7.0 | 9.0 | 0.00 | 0.00 | 0.00 | 56 | 1022.3 |
| 20260502130134 | 37 | 290 | 8.0 | 10.0 | 0.00 | 0.00 | 0.00 | 58 | 1022.2 |
| 20260502123620 | 32 | 252 | 8.0 | 9.0 | 0.00 | 0.00 | 0.00 | 65 | 1022.2 |
| 20260502123116 | 32 | 279 | 6.0 | 9.0 | 0.00 | 0.00 | 0.00 | 66 | 1022.1 |
| 20260502122612 | 31 | 279 | 6.0 | 7.0 | 0.00 | 0.00 | 0.00 | 68 | 1022.1 |
| 20260502122109 | 30 | 264 | 4.0 | 7.0 | 0.00 | 0.00 | 0.00 | 68 | 1022.0 |
| 20260502121608 | 28 | 244 | 4.0 | 6.0 | 0.00 | 0.00 | 0.00 | 70 | 1022.0 |
| 20260502121105 | 28 | 295 | 5.0 | 6.0 | 0.00 | 0.00 | 0.00 | 70 | 1021.9 |
| 20260502120601 | 27 | 275 | 6.0 | 7.0 | 0.00 | 0.00 | 0.00 | 71 | 1022.1 |
| 20260502115556 | 27 | 276 | 3.0 | 5.0 | 0.00 | 0.00 | 0.00 | 72 | 1022.2 |
| 20260502115051 | 26 | 266 | 0.0 | 2.0 | 0.00 | 0.00 | 0.00 | 74 | 1022.3 |
| 20260502114548 | 27 | 250 | 2.0 | 5.0 | 0.00 | 0.00 | 0.00 | 73 | 1022.2 |
| 20260502114045 | 27 | 249 | 2.0 | 2.0 | 0.00 | 0.00 | 0.00 | 74 | 1022.2 |
| 20260502113542 | 27 | 208 | 1.0 | 2.0 | 0.00 | 0.00 | 0.00 | 74 | 1022.2 |
| 20260502113041 | 27 | 201 | 2.0 | 2.0 | 0.00 | 0.00 | 0.00 | 74 | 1022.1 |
| 20260502112538 | 28 | 211 | 0.0 | 3.0 | 0.00 | 0.00 | 0.00 | 73 | 1022.2 |
| 20260502112036 | 28 | 236 | 3.0 | 6.0 | 0.00 | 0.00 | 0.00 | 73 | 1022.2 |
| 20260502111533 | 28 | 204 | 0.0 | 3.0 | 0.00 | 0.00 | 0.00 | 73 | 1022.1 |
| 20260502111030 | 28 | 230 | 4.0 | 5.0 | 0.00 | 0.00 | 0.00 | 74 | 1022.3 |
| 20260502110527 | 29 | 238 | 4.0 | 6.0 | 0.00 | 0.00 | 0.00 | 75 | 1022.3 |
| 20260502110025 | 28 | 243 | 0.0 | 1.0 | 0.00 | 0.00 | 0.00 | 76 | 1022.1 |
| 20260502105522 | 28 | 219 | 4.0 | 6.0 | 0.00 | 0.00 | 0.00 | 76 | 1022.2 |
| 20260502105020 | 27 | 236 | 1.0 | 3.0 | 0.00 | 0.00 | 0.00 | 77 | 1022.3 |
| 20260502104516 | 27 | 201 | 0.0 | 1.0 | 0.00 | 0.00 | 0.00 | 76 | 1022.3 |
| 20260502104014 | 26 | 204 | 0.0 | 0.0 | 0.00 | 0.00 | 0.00 | 75 | 1022.3 |
| 20260502103512 | 26 | 200 | 0.0 | 0.0 | 0.00 | 0.00 | 0.00 | 77 | 1022.3 |
| 20260502103010 | 26 | 202 | 0.0 | 0.0 | 0.00 | 0.00 | 0.00 | 76 | 1022.3 |
| 20260502102505 | 25 | 198 | 0.0 | 0.0 | 0.00 | 0.00 | 0.00 | 75 | 1022.2 |
| 20260502102003 | 26 | 195 | 0.0 | 0.0 | 0.00 | 0.00 | 0.00 | 74 | 1022.6 |
| 20260502101500 | 26 | 198 | 0.0 | 0.0 | 0.00 | 0.00 | 0.00 | 75 | 1022.3 |
| 20260502100959 | 25 | 192 | 0.0 | 0.0 | 0.00 | 0.00 | 0.00 | 73 | 1022.5 |
| 20260502100457 | 25 | 192 | 0.0 | 0.0 | 0.00 | 0.00 | 0.00 | 71 | 1022.6 |
| 20260502091431 | 25 | 214 | 0.0 | 0.0 | 0.00 | 0.00 | 0.00 | 67 | 1022.3 |
| 20260502090928 | 26 | 218 | 0.0 | 2.0 | 0.00 | 0.00 | 0.00 | 68 | 1022.5 |
| 20260502090426 | 26 | 222 | 2.0 | 3.0 | 0.00 | 0.00 | 0.00 | 68 | 1022.5 |
| 20260502071314 | 33 | 223 | 0.0 | 0.0 | 0.00 | 0.00 | 0.00 | 63 | 1022.9 |
| 20260502070813 | 32 | 220 | 0.0 | 0.0 | 0.00 | 0.00 | 0.00 | 64 | 1022.8 |
| 20260502070310 | 32 | 193 | 0.0 | 0.0 | 0.00 | 0.00 | 0.00 | 64 | 1023.2 |
| 20260502065809 | 32 | 195 | 0.0 | 0.0 | 0.00 | 0.00 | 0.00 | 63 | 1023.2 |
| 20260502065306 | 33 | 211 | 0.0 | 0.0 | 0.00 | 0.00 | 0.00 | 62 | 1023.0 |
| 20260502064804 | 33 | 236 | 0.0 | 0.0 | 0.00 | 0.00 | 0.00 | 62 | 1022.8 |
| 20260502064301 | 34 | 204 | 0.0 | 0.0 | 0.00 | 0.00 | 0.00 | 61 | 1022.9 |
| 20260502063758 | 34 | 194 | 0.0 | 0.0 | 0.00 | 0.00 | 0.00 | 62 | 1022.9 |
| 20260502063251 | 34 | 187 | 0.0 | 0.0 | 0.00 | 0.00 | 0.00 | 63 | 1023.0 |
| 20260502062748 | 34 | 182 | 0.0 | 0.0 | 0.00 | 0.00 | 0.00 | 63 | 1022.7 |
| 20260502062245 | 34 | 182 | 0.0 | 0.0 | 0.00 | 0.00 | 0.00 | 63 | 1022.8 |
| 20260502061744 | 34 | 182 | 0.0 | 0.0 | 0.00 | 0.00 | 0.00 | 62 | 1022.9 |
| 20260502061241 | 35 | 182 | 0.0 | 0.0 | 0.00 | 0.00 | 0.00 | 61 | 1022.8 |
| 20260502060736 | 35 | 182 | 0.0 | 0.0 | 0.00 | 0.00 | 0.00 | 60 | 1022.8 |
| 20260502060232 | 35 | 182 | 0.0 | 0.0 | 0.00 | 0.00 | 0.00 | 59 | 1022.9 |
| 20260502055730 | 36 | 191 | 0.0 | 0.0 | 0.00 | 0.00 | 0.00 | 59 | 1022.7 |
| 20260502055227 | 37 | 156 | 0.0 | 0.0 | 0.00 | 0.00 | 0.00 | 57 | 1022.6 |
| 20260502054721 | 38 | 126 | 2.0 | 5.0 | 0.00 | 0.00 | 0.00 | 56 | 1022.7 |
| 20260502054218 | 39 | 111 | 3.0 | 5.0 | 0.00 | 0.00 | 0.00 | 55 | 1022.7 |
| 20260502053716 | 39 | 98 | 6.0 | 6.0 | 0.00 | 0.00 | 0.00 | 55 | 1022.5 |
| 20260502053212 | 38 | 122 | 4.0 | 5.0 | 0.00 | 0.00 | 0.00 | 55 | 1022.6 |
| 20260502052710 | 38 | 129 | 5.0 | 6.0 | 0.00 | 0.00 | 0.00 | 54 | 1022.2 |
| 20260502052209 | 39 | 146 | 4.0 | 5.0 | 0.00 | 0.00 | 0.00 | 53 | 1022.3 |
| 20260502051706 | 39 | 152 | 6.0 | 9.0 | 0.00 | 0.00 | 0.00 | 52 | 1022.3 |
| 20260502051205 | 40 | 136 | 6.0 | 8.0 | 0.00 | 0.00 | 0.00 | 51 | 1022.2 |
| 20260502050700 | 40 | 117 | 6.0 | 10.0 | 0.00 | 0.00 | 0.00 | 50 | 1022.1 |
| 20260502050156 | 40 | 112 | 8.0 | 10.0 | 0.00 | 0.00 | 0.00 | 49 | 1022.1 |
| 20260502045648 | 40 | 124 | 8.0 | 10.0 | 0.00 | 0.00 | 0.00 | 48 | 1022.1 |
| 20260502045145 | 40 | 109 | 5.0 | 11.0 | 0.00 | 0.00 | 0.00 | 47 | 1022.2 |
| 20260502044641 | 40 | 76 | 1.0 | 7.0 | 0.00 | 0.00 | 0.00 | 46 | 1022.3 |
| 20260502044137 | 40 | 79 | 5.0 | 7.0 | 0.00 | 0.00 | 0.00 | 45 | 1022.1 |
| 20260502043635 | 42 | 48 | 3.0 | 6.0 | 0.00 | 0.00 | 0.00 | 43 | 1022.1 |
| 20260502043133 | 39 | 48 | 11.0 | 15.0 | 0.00 | 0.00 | 0.00 | 43 | 1022.1 |
| 20260502042626 | 38 | 218 | 0.0 | 0.0 | 0.00 | 0.00 | 0.00 | 44 | 1021.7 |
| 20260502042124 | 39 | 193 | 0.0 | 0.0 | 0.00 | 0.00 | 0.00 | 44 | 1021.7 |
| 20260502041622 | 40 | 285 | 2.0 | 3.0 | 0.00 | 0.00 | 0.00 | 43 | 1021.7 |
| 20260502041119 | 40 | 240 | 2.0 | 3.0 | 0.00 | 0.00 | 0.00 | 43 | 1021.6 |
| 20260502040615 | 40 | 291 | 3.0 | 3.0 | 0.00 | 0.00 | 0.00 | 43 | 1021.6 |
| 20260502040113 | 40 | 241 | 1.0 | 2.0 | 0.00 | 0.00 | 0.00 | 43 | 1021.5 |
| 20260502035609 | 41 | 280 | 0.0 | 0.0 | 0.00 | 0.00 | 0.00 | 43 | 1021.6 |
| 20260502035106 | 41 | 185 | 0.0 | 0.0 | 0.00 | 0.00 | 0.00 | 41 | 1021.4 |
| 20260502034603 | 41 | 217 | 0.0 | 0.0 | 0.00 | 0.00 | 0.00 | 41 | 1021.5 |
| 20260502034102 | 41 | 223 | 0.0 | 0.0 | 0.00 | 0.00 | 0.00 | 41 | 1021.6 |
| 20260502033559 | 41 | 258 | 0.0 | 0.0 | 0.00 | 0.00 | 0.00 | 41 | 1021.2 |
| 20260502033057 | 41 | 246 | 0.0 | 0.0 | 0.00 | 0.00 | 0.00 | 40 | 1021.5 |
| 20260502032552 | 42 | 293 | 3.0 | 5.0 | 0.00 | 0.00 | 0.00 | 40 | 1021.4 |
| 20260502032049 | 42 | 218 | 0.0 | 0.0 | 0.00 | 0.00 | 0.00 | 40 | 1021.2 |
| 20260502031547 | 42 | 228 | 0.0 | 0.0 | 0.00 | 0.00 | 0.00 | 40 | 1021.4 |
| 20260502031044 | 43 | 239 | 0.0 | 0.0 | 0.00 | 0.00 | 0.00 | 39 | 1021.3 |
| 20260502030543 | 43 | 212 | 0.0 | 0.0 | 0.00 | 0.00 | 0.00 | 38 | 1021.2 |
| 20260502030041 | 43 | 223 | 0.0 | 0.0 | 0.00 | 0.00 | 0.00 | 38 | 1021.2 |
| 20260502025538 | 43 | 222 | 2.0 | 2.0 | 0.00 | 0.00 | 0.00 | 37 | 1021.0 |
| 20260502025036 | 45 | 266 | 0.0 | 2.0 | 0.00 | 0.00 | 0.00 | 37 | 1020.9 |
| 20260502024533 | 46 | 146 | 0.0 | 2.0 | 0.00 | 0.00 | 0.00 | 36 | 1020.9 |
| 20260502024032 | 47 | 1 | 2.0 | 5.0 | 0.00 | 0.00 | 0.00 | 35 | 1021.0 |
| 20260502023529 | 46 | 5 | 3.0 | 3.0 | 0.00 | 0.00 | 0.00 | 36 | 1021.0 |
| 20260502023026 | 45 | 9 | 0.0 | 1.0 | 0.00 | 0.00 | 0.00 | 37 | 1020.7 |
| 20260502022522 | 46 | 101 | 0.0 | 5.0 | 0.00 | 0.00 | 0.00 | 37 | 1020.8 |
| 20260502022020 | 46 | 31 | 2.0 | 5.0 | 0.00 | 0.00 | 0.00 | 37 | 1020.7 |
| 20260502021517 | 46 | 41 | 4.0 | 5.0 | 0.00 | 0.00 | 0.00 | 36 | 1020.4 |
| 20260502021014 | 47 | 38 | 3.0 | 5.0 | 0.00 | 0.00 | 0.00 | 36 | 1020.6 |
| 20260502020512 | 48 | 19 | 0.0 | 0.0 | 0.00 | 0.00 | 0.00 | 35 | 1020.3 |
| 20260502020009 | 48 | 349 | 0.0 | 0.0 | 0.00 | 0.00 | 0.00 | 35 | 1020.4 |
| 20260502015506 | 50 | 128 | 0.0 | 0.0 | 0.00 | 0.00 | 0.00 | 34 | 1020.3 |
| 20260502015002 | 50 | 35 | 3.0 | 5.0 | 0.00 | 0.00 | 0.00 | 33 | 1020.1 |
| 20260502014500 | 51 | 23 | 5.0 | 7.0 | 0.00 | 0.00 | 0.00 | 33 | 1020.2 |
| 20260502013956 | 51 | 32 | 5.0 | 6.0 | 0.00 | 0.00 | 0.00 | 32 | 1020.1 |
| 20260502013452 | 52 | 38 | 4.0 | 7.0 | 0.00 | 0.00 | 0.00 | 31 | 1020.0 |